Find STARLINK-37952

NORAD ID: 799500991 Int'l Des: 2026-135R Constellation: starlink operational

Aktuelle Ansicht

3D-Globus wird geladen...

About STARLINK-37952

STARLINK-37952 (NORAD 799500991) is a starlink constellation satellite launched Jun 8, 2026

Über STARLINK-37952

Beschreibung wird geladen...

Nächste Überflüge

Passes for default location (London). Set your location on the main map for personalized predictions.

Höhenverlauf

Loading altitude history...

Zweizeiliger Elementsatz

1 99999C 2026135R 26167.15326389 .00424850 00000-0 653490-4 0 1674
2 99999 97.2790 193.9656 0010783 263.2464 253.0504 16.03963534 16
Epoch: 16. Juni 2026 • Age: 3 hours